Time,TemperatureF,DewpointF,PressureIn,WindDirection,WindDirectionDegrees,WindSpeedMPH,WindSpeedGustMPH,Humidity,HourlyPrecipIn,Conditions,Clouds,dailyrainin,SoftwareType,DateUTC
2013-09-22 00:00:00,52.1,44.4,29.52,SW,225,0.0,0.0,75,0.00,CLR,SKC,0.00,WeatherDisplay:10.37,2013-09-22 06:00:00,
2013-09-22 00:06:00,52.0,44.0,29.52,SW,225,0.0,0.0,74,0.00,CLR,SKC,0.00,WeatherDisplay:10.37,2013-09-22 06:06:00,
2013-09-22 00:11:00,52.1,43.0,29.52,SW,225,0.0,0.0,71,0.00,CLR,SKC,0.00,WeatherDisplay:10.37,2013-09-22 06:11:00,
2013-09-22 00:16:00,52.3,44.3,29.52,SW,225,0.0,0.0,74,0.00,CLR,SKC,0.00,WeatherDisplay:10.37,2013-09-22 06:16:00,
2013-09-22 00:21:00,52.2,44.5,29.53,SW,225,0.0,0.0,75,0.00,CLR,SKC,0.00,WeatherDisplay:10.37,2013-09-22 06:21:00,
2013-09-22 00:26:00,52.0,44.3,29.53,SW,225,0.0,0.0,75,0.00,CLR,SKC,0.00,WeatherDisplay:10.37,2013-09-22 06:26:00,
2013-09-22 00:32:00,52.0,43.6,29.54,SW,225,0.0,0.0,73,0.00,CLR,SKC,0.00,WeatherDisplay:10.37,2013-09-22 06:32:00,
2013-09-22 00:37:00,52.3,44.3,29.54,SW,225,0.0,0.0,74,0.00,CLR,SKC,0.00,WeatherDisplay:10.37,2013-09-22 06:37:00,
2013-09-22 00:42:00,52.4,44.4,29.54,SW,225,0.0,0.0,74,0.00,CLR,SKC,0.00,WeatherDisplay:10.37,2013-09-22 06:42:00,
2013-09-22 00:47:00,52.6,45.2,29.53,SW,225,0.0,0.0,76,0.00,CLR,SKC,0.00,WeatherDisplay:10.37,2013-09-22 06:47:00,
2013-09-22 00:52:00,52.4,45.7,29.54,SW,225,0.0,0.0,78,0.00,CLR,SKC,0.00,WeatherDisplay:10.37,2013-09-22 06:52:00,
2013-09-22 00:57:00,52.1,46.1,29.54,SW,225,0.0,0.0,80,0.00,CLR,SKC,0.00,WeatherDisplay:10.37,2013-09-22 06:57:00,
2013-09-22 01:02:00,51.8,46.5,29.53,SW,225,1.1,1.1,82,0.00,CLR,SKC,0.00,WeatherDisplay:10.37,2013-09-22 07:02:00,
2013-09-22 01:07:00,51.5,47.1,29.53,SW,225,0.0,0.0,85,0.00,CLR,SKC,0.00,WeatherDisplay:10.37,2013-09-22 07:07:00,
2013-09-22 01:12:00,51.4,47.4,29.53,SW,225,0.0,0.0,86,0.00,CLR,SKC,0.00,WeatherDisplay:10.37,2013-09-22 07:12:00,
2013-09-22 01:16:00,51.3,47.6,29.53,SW,225,0.0,0.0,87,0.00,CLR,SKC,0.00,WeatherDisplay:10.37,2013-09-22 07:16:00,
2013-09-22 01:22:00,51.0,47.6,29.53,SW,225,0.0,0.0,88,0.00,CLR,SKC,0.00,WeatherDisplay:10.37,2013-09-22 07:22:00,
2013-09-22 01:27:00,50.9,47.8,29.53,SW,225,0.0,0.0,89,0.00,CLR,SKC,0.00,WeatherDisplay:10.37,2013-09-22 07:27:00,
2013-09-22 01:32:00,50.9,48.1,29.53,SW,225,0.0,0.0,90,0.00,CLR,SKC,0.00,WeatherDisplay:10.37,2013-09-22 07:32:00,
2013-09-22 01:37:00,50.9,48.1,29.52,SW,225,0.0,0.0,90,0.00,CLR,SKC,0.00,WeatherDisplay:10.37,2013-09-22 07:37:00,
2013-09-22 01:42:00,51.0,48.2,29.52,SW,225,1.1,1.1,90,0.00,CLR,SKC,0.00,WeatherDisplay:10.37,2013-09-22 07:42:00,
2013-09-22 01:47:00,51.1,48.6,29.52,SW,225,0.0,0.0,91,0.00,CLR,SKC,0.00,WeatherDisplay:10.37,2013-09-22 07:47:00,
2013-09-22 01:52:00,51.0,48.2,29.52,SW,225,0.0,0.0,90,0.00,CLR,SKC,0.00,WeatherDisplay:10.37,2013-09-22 07:52:00,
2013-09-22 01:57:00,51.1,48.6,29.52,SW,225,0.0,0.0,91,0.00,CLR,SKC,0.00,WeatherDisplay:10.37,2013-09-22 07:57:00,
2013-09-22 02:02:00,51.1,48.6,29.52,SW,225,0.0,0.0,91,0.00,CLR,SKC,0.00,WeatherDisplay:10.37,2013-09-22 08:02:00,
2013-09-22 02:08:00,51.0,48.4,29.53,SW,225,0.0,0.0,91,0.00,RA,SKC,0.01,WeatherDisplay:10.37,2013-09-22 08:08:00,
2013-09-22 02:14:00,50.8,48.3,29.54,SW,225,0.0,0.0,91,0.01,RA,SKC,0.01,WeatherDisplay:10.37,2013-09-22 08:14:00,
2013-09-22 02:19:00,50.8,48.6,29.55,SW,225,0.0,0.0,92,0.01,CLR,SKC,0.01,WeatherDisplay:10.37,2013-09-22 08:19:00,
2013-09-22 02:24:00,50.8,48.6,29.55,SW,225,0.0,0.0,92,0.02,RA,SKC,0.02,WeatherDisplay:10.37,2013-09-22 08:24:00,
2013-09-22 02:29:00,50.7,48.5,29.55,SW,225,0.0,0.0,92,0.02,RA,SKC,0.02,WeatherDisplay:10.37,2013-09-22 08:29:00,
2013-09-22 02:34:00,50.7,48.5,29.55,SW,225,0.0,0.0,92,0.03,RA,SKC,0.03,WeatherDisplay:10.37,2013-09-22 08:34:00,
2013-09-22 02:39:00,50.7,48.5,29.55,SW,225,1.1,1.1,92,0.04,RA,SKC,0.04,WeatherDisplay:10.37,2013-09-22 08:39:00,
2013-09-22 02:44:00,50.8,48.8,29.54,SW,225,0.0,0.0,93,0.05,RA,SKC,0.05,WeatherDisplay:10.37,2013-09-22 08:44:00,
2013-09-22 02:49:00,50.8,48.8,29.54,SW,225,0.0,0.0,93,0.05,RA,SKC,0.05,WeatherDisplay:10.37,2013-09-22 08:49:00,
2013-09-22 02:54:00,50.8,48.8,29.54,SW,225,0.0,0.0,93,0.05,CLR,SKC,0.05,WeatherDisplay:10.37,2013-09-22 08:54:00,
2013-09-22 02:59:00,50.8,48.8,29.54,SW,225,0.0,0.0,93,0.05,CLR,SKC,0.05,WeatherDisplay:10.37,2013-09-22 08:59:00,
2013-09-22 03:04:00,50.8,48.8,29.53,SW,225,0.0,0.0,93,0.05,CLR,SKC,0.05,WeatherDisplay:10.37,2013-09-22 09:04:00,
2013-09-22 03:09:00,50.8,48.8,29.53,SW,225,0.0,0.0,93,0.04,CLR,SKC,0.05,WeatherDisplay:10.37,2013-09-22 09:09:00,
2013-09-22 03:15:00,50.8,48.8,29.53,SW,225,0.0,0.0,93,0.04,CLR,SKC,0.05,WeatherDisplay:10.37,2013-09-22 09:15:00,
2013-09-22 03:20:00,50.8,48.8,29.53,SW,225,0.0,0.0,93,0.04,CLR,SKC,0.05,WeatherDisplay:10.37,2013-09-22 09:20:00,
2013-09-22 03:25:00,50.8,48.8,29.53,SW,225,0.0,0.0,93,0.03,CLR,SKC,0.05,WeatherDisplay:10.37,2013-09-22 09:25:00,
2013-09-22 03:30:00,50.8,48.8,29.53,SW,225,0.0,0.0,93,0.03,CLR,SKC,0.05,WeatherDisplay:10.37,2013-09-22 09:30:00,
2013-09-22 03:35:00,50.7,48.7,29.52,SW,225,0.0,0.0,93,0.02,CLR,SKC,0.05,WeatherDisplay:10.37,2013-09-22 09:35:00,
2013-09-22 03:40:00,50.7,48.7,29.52,SW,225,0.0,0.0,93,0.01,CLR,SKC,0.05,WeatherDisplay:10.37,2013-09-22 09:40:00,
2013-09-22 03:45:00,50.7,48.7,29.51,SW,225,0.0,0.0,93,0.00,CLR,SKC,0.05,WeatherDisplay:10.37,2013-09-22 09:45:00,
2013-09-22 03:50:00,50.6,48.7,29.51,SW,225,0.0,0.0,93,0.00,CLR,SKC,0.05,WeatherDisplay:10.37,2013-09-22 09:50:00,
2013-09-22 03:55:00,50.5,48.6,29.51,West,264,1.1,0.0,93,0.00,CLR,SKC,0.05,WeatherDisplay:10.37,2013-09-22 09:55:00,
2013-09-22 04:00:00,50.6,48.7,29.51,West,264,0.0,0.0,93,0.00,CLR,SKC,0.05,WeatherDisplay:10.37,2013-09-22 10:00:00,
2013-09-22 04:05:00,50.4,48.5,29.51,West,264,0.0,0.0,93,0.00,CLR,SKC,0.05,WeatherDisplay:10.37,2013-09-22 10:05:00,
2013-09-22 04:10:00,50.3,48.4,29.51,West,264,0.0,0.0,93,0.00,CLR,SKC,0.05,WeatherDisplay:10.37,2013-09-22 10:10:00,
2013-09-22 04:15:00,50.1,48.2,29.50,West,264,0.0,0.0,93,0.00,CLR,SKC,0.05,WeatherDisplay:10.37,2013-09-22 10:15:00,
2013-09-22 04:20:00,49.8,47.9,29.50,West,264,0.0,0.0,93,0.00,CLR,SKC,0.05,WeatherDisplay:10.37,2013-09-22 10:20:00,
2013-09-22 04:25:00,49.6,47.7,29.50,West,264,0.0,0.0,93,0.00,CLR,SKC,0.05,WeatherDisplay:10.37,2013-09-22 10:25:00,
2013-09-22 04:30:00,49.4,47.5,29.50,West,264,0.0,0.0,93,0.00,CLR,SKC,0.05,WeatherDisplay:10.37,2013-09-22 10:30:00,
2013-09-22 04:35:00,49.3,47.4,29.50,West,264,1.1,0.0,93,0.00,CLR,SKC,0.05,WeatherDisplay:10.37,2013-09-22 10:35:00,
2013-09-22 04:41:00,49.3,47.4,29.50,West,264,0.0,0.0,93,0.00,CLR,SKC,0.05,WeatherDisplay:10.37,2013-09-22 10:41:00,
2013-09-22 04:46:00,49.3,47.6,29.51,West,264,0.0,0.0,94,0.00,CLR,SKC,0.05,WeatherDisplay:10.37,2013-09-22 10:46:00,
2013-09-22 04:51:00,49.2,47.3,29.51,West,264,0.0,0.0,93,0.00,CLR,SKC,0.05,WeatherDisplay:10.37,2013-09-22 10:51:00,
2013-09-22 05:06:00,48.8,46.9,29.52,West,264,0.0,0.0,93,0.00,CLR,SKC,0.05,WeatherDisplay:10.37,2013-09-22 11:06:00,
2013-09-22 05:12:00,48.6,46.7,29.52,West,264,1.1,1.1,93,0.00,CLR,SKC,0.05,WeatherDisplay:10.37,2013-09-22 11:12:00,
2013-09-22 05:17:00,48.5,46.9,29.52,West,264,0.0,0.0,94,0.00,CLR,SKC,0.05,WeatherDisplay:10.37,2013-09-22 11:17:00,
2013-09-22 05:22:00,48.3,46.7,29.52,West,264,0.0,0.0,94,0.00,CLR,SKC,0.05,WeatherDisplay:10.37,2013-09-22 11:22:00,
2013-09-22 05:27:00,48.2,46.6,29.52,West,264,0.0,0.0,94,0.00,CLR,SKC,0.05,WeatherDisplay:10.37,2013-09-22 11:27:00,
2013-09-22 05:32:00,48.1,46.5,29.53,West,264,0.0,0.0,94,0.00,CLR,SKC,0.05,WeatherDisplay:10.37,2013-09-22 11:32:00,
2013-09-22 05:38:00,48.0,46.4,29.53,West,264,0.0,0.0,94,0.00,CLR,SKC,0.05,WeatherDisplay:10.37,2013-09-22 11:38:00,
2013-09-22 05:43:00,48.0,46.4,29.53,West,264,0.0,0.0,94,0.00,CLR,SKC,0.05,WeatherDisplay:10.37,2013-09-22 11:43:00,
2013-09-22 05:48:00,48.2,46.8,29.53,West,264,0.0,0.0,95,0.00,CLR,SKC,0.05,WeatherDisplay:10.37,2013-09-22 11:48:00,
2013-09-22 05:53:00,48.2,46.8,29.53,West,264,0.0,0.0,95,0.00,CLR,SKC,0.05,WeatherDisplay:10.37,2013-09-22 11:53:00,
2013-09-22 05:57:00,48.3,46.7,29.53,West,264,0.0,0.0,94,0.00,CLR,SKC,0.05,WeatherDisplay:10.37,2013-09-22 11:57:00,
2013-09-22 06:02:00,48.3,46.9,29.53,West,264,0.0,0.0,95,0.00,CLR,SKC,0.05,WeatherDisplay:10.37,2013-09-22 12:02:00,
2013-09-22 06:07:00,48.3,46.9,29.53,West,264,0.0,0.0,95,0.00,CLR,SKC,0.05,WeatherDisplay:10.37,2013-09-22 12:07:00,
2013-09-22 06:12:00,48.3,46.9,29.53,West,264,0.0,0.0,95,0.00,CLR,SKC,0.05,WeatherDisplay:10.37,2013-09-22 12:12:00,
2013-09-22 06:17:00,48.4,47.0,29.53,West,264,0.0,0.0,95,0.00,CLR,SKC,0.05,WeatherDisplay:10.37,2013-09-22 12:17:00,
2013-09-22 06:22:00,48.4,47.0,29.53,West,264,0.0,0.0,95,0.00,CLR,SKC,0.05,WeatherDisplay:10.37,2013-09-22 12:22:00,
2013-09-22 06:27:00,48.6,47.2,29.53,West,264,0.0,0.0,95,0.00,CLR,SKC,0.05,WeatherDisplay:10.37,2013-09-22 12:27:00,
2013-09-22 06:32:00,48.6,47.2,29.53,West,264,0.0,0.0,95,0.00,CLR,SKC,0.05,WeatherDisplay:10.37,2013-09-22 12:32:00,
2013-09-22 06:37:00,48.6,47.2,29.53,West,264,0.0,0.0,95,0.00,CLR,SKC,0.05,WeatherDisplay:10.37,2013-09-22 12:37:00,
2013-09-22 06:42:00,48.7,47.3,29.53,West,264,0.0,0.0,95,0.00,CLR,SKC,0.05,WeatherDisplay:10.37,2013-09-22 12:42:00,
2013-09-22 06:48:00,48.7,47.3,29.54,West,264,0.0,1.0,95,0.00,RA,SKC,0.05,WeatherDisplay:10.37,2013-09-22 12:48:00,
2013-09-22 06:53:00,48.6,47.2,29.54,West,264,0.0,0.0,95,0.00,CLR,SKC,0.05,WeatherDisplay:10.37,2013-09-22 12:53:00,
2013-09-22 06:58:00,48.5,47.1,29.54,West,264,0.0,0.0,95,0.00,CLR,SKC,0.05,WeatherDisplay:10.37,2013-09-22 12:58:00,
2013-09-22 07:03:00,48.5,47.1,29.53,West,264,0.0,0.0,95,0.00,CLR,SKC,0.05,WeatherDisplay:10.37,2013-09-22 13:03:00,
2013-09-22 07:08:00,48.5,47.1,29.53,West,264,0.0,0.0,95,0.00,CLR,SKC,0.05,WeatherDisplay:10.37,2013-09-22 13:08:00,
2013-09-22 07:13:00,48.4,47.0,29.53,West,264,1.1,1.1,95,0.00,CLR,SKC,0.05,WeatherDisplay:10.37,2013-09-22 13:13:00,
2013-09-22 07:18:00,48.5,47.1,29.54,West,264,0.0,0.0,95,0.00,CLR,SKC,0.05,WeatherDisplay:10.37,2013-09-22 13:18:00,
2013-09-22 07:23:00,48.5,47.1,29.54,West,264,0.0,0.0,95,0.00,CLR,SKC,0.05,WeatherDisplay:10.37,2013-09-22 13:23:00,
2013-09-22 07:28:00,48.5,47.1,29.54,West,264,0.0,0.0,95,0.00,CLR,SKC,0.05,WeatherDisplay:10.37,2013-09-22 13:28:00,
2013-09-22 07:33:00,48.5,47.1,29.54,West,264,0.0,0.0,95,0.00,CLR,SKC,0.05,WeatherDisplay:10.37,2013-09-22 13:33:00,
2013-09-22 07:38:00,48.4,47.0,29.54,West,264,0.0,0.0,95,0.00,CLR,SKC,0.05,WeatherDisplay:10.37,2013-09-22 13:38:00,
2013-09-22 07:43:00,48.4,47.0,29.54,West,264,0.0,0.0,95,0.00,CLR,SKC,0.05,WeatherDisplay:10.37,2013-09-22 13:43:00,
2013-09-22 07:48:00,48.3,46.9,29.54,West,264,1.1,1.1,95,0.00,CLR,SKC,0.05,WeatherDisplay:10.37,2013-09-22 13:48:00,
2013-09-22 07:53:00,48.4,47.0,29.54,WSW,251,1.1,0.0,95,0.00,CLR,SKC,0.05,WeatherDisplay:10.37,2013-09-22 13:53:00,
2013-09-22 07:58:00,48.4,47.0,29.54,WSW,251,0.0,0.0,95,0.00,CLR,SKC,0.05,WeatherDisplay:10.37,2013-09-22 13:58:00,
2013-09-22 08:03:00,48.5,47.1,29.54,WSW,251,0.0,0.0,95,0.00,CLR,SKC,0.05,WeatherDisplay:10.37,2013-09-22 14:03:00,
2013-09-22 08:08:00,48.5,47.1,29.54,WSW,251,0.0,0.0,95,0.00,CLR,SKC,0.05,WeatherDisplay:10.37,2013-09-22 14:08:00,
2013-09-22 08:13:00,48.6,47.2,29.54,WSW,251,0.0,0.0,95,0.00,CLR,SKC,0.05,WeatherDisplay:10.37,2013-09-22 14:13:00,
2013-09-22 08:18:00,48.7,47.3,29.54,WSW,251,0.0,0.0,95,0.00,CLR,SKC,0.05,WeatherDisplay:10.37,2013-09-22 14:18:00,
2013-09-22 08:23:00,48.7,47.3,29.54,WSW,251,0.0,0.0,95,0.00,CLR,SKC,0.05,WeatherDisplay:10.37,2013-09-22 14:23:00,
2013-09-22 08:28:00,48.7,47.3,29.54,WSW,251,0.0,0.0,95,0.00,CLR,SKC,0.05,WeatherDisplay:10.37,2013-09-22 14:28:00,
2013-09-22 08:33:00,48.7,47.3,29.55,WSW,251,0.0,0.0,95,0.00,CLR,SKC,0.05,WeatherDisplay:10.37,2013-09-22 14:33:00,
2013-09-22 08:38:00,48.7,47.3,29.55,WSW,251,0.0,0.0,95,0.00,CLR,SKC,0.05,WeatherDisplay:10.37,2013-09-22 14:38:00,
2013-09-22 08:43:00,48.7,47.3,29.55,WSW,251,0.0,0.0,95,0.00,CLR,SKC,0.05,WeatherDisplay:10.37,2013-09-22 14:43:00,
2013-09-22 08:48:00,48.7,47.3,29.55,WSW,251,0.0,0.0,95,0.00,CLR,SKC,0.05,WeatherDisplay:10.37,2013-09-22 14:48:00,
2013-09-22 08:53:00,48.8,47.4,29.55,WSW,251,0.0,0.0,95,0.00,CLR,SKC,0.05,WeatherDisplay:10.37,2013-09-22 14:53:00,
2013-09-22 08:58:00,48.9,47.5,29.55,WSW,251,0.0,0.0,95,0.00,CLR,SKC,0.05,WeatherDisplay:10.37,2013-09-22 14:58:00,
2013-09-22 09:03:00,49.0,47.6,29.55,WSW,251,0.0,0.0,95,0.00,CLR,SKC,0.05,WeatherDisplay:10.37,2013-09-22 15:03:00,
2013-09-22 09:08:00,49.0,47.6,29.55,WSW,251,0.0,0.0,95,0.00,CLR,SKC,0.05,WeatherDisplay:10.37,2013-09-22 15:08:00,
2013-09-22 09:13:00,49.0,47.6,29.55,WSW,251,0.0,0.0,95,0.00,CLR,SKC,0.05,WeatherDisplay:10.37,2013-09-22 15:13:00,
2013-09-22 09:18:00,49.0,47.6,29.55,WSW,251,0.0,0.0,95,0.00,CLR,SKC,0.05,WeatherDisplay:10.37,2013-09-22 15:18:00,
2013-09-22 09:23:00,49.0,47.6,29.55,WSW,251,0.0,0.0,95,0.00,CLR,SKC,0.05,WeatherDisplay:10.37,2013-09-22 15:23:00,
2013-09-22 09:29:00,49.1,47.7,29.56,WSW,251,0.0,0.0,95,0.00,RA,SKC,0.05,WeatherDisplay:10.37,2013-09-22 15:29:00,
2013-09-22 09:34:00,49.2,48.1,29.55,WSW,251,0.0,0.0,96,0.01,RA,SKC,0.06,WeatherDisplay:10.37,2013-09-22 15:34:00,
2013-09-22 09:39:00,49.3,48.2,29.56,WSW,251,0.0,0.0,96,0.01,RA,SKC,0.06,WeatherDisplay:10.37,2013-09-22 15:39:00,
2013-09-22 09:44:00,49.4,48.3,29.56,WSW,251,0.0,0.0,96,0.01,CLR,SKC,0.06,WeatherDisplay:10.37,2013-09-22 15:44:00,
2013-09-22 09:50:00,49.4,48.0,29.56,WSW,251,0.0,0.0,95,0.01,CLR,SKC,0.06,WeatherDisplay:10.37,2013-09-22 15:50:00,
2013-09-22 09:55:00,49.5,48.1,29.56,WSW,251,0.0,0.0,95,0.01,CLR,SKC,0.06,WeatherDisplay:10.37,2013-09-22 15:55:00,
2013-09-22 10:00:00,49.5,48.1,29.56,WSW,251,0.0,0.0,95,0.01,CLR,SKC,0.06,WeatherDisplay:10.37,2013-09-22 16:00:00,
2013-09-22 10:05:00,49.6,48.5,29.56,WSW,251,0.0,0.0,96,0.01,CLR,SKC,0.06,WeatherDisplay:10.37,2013-09-22 16:05:00,
2013-09-22 10:10:00,49.8,48.7,29.56,WSW,251,0.0,0.0,96,0.01,CLR,SKC,0.06,WeatherDisplay:10.37,2013-09-22 16:10:00,
2013-09-22 10:15:00,49.9,48.8,29.56,WSW,251,0.0,0.0,96,0.01,CLR,SKC,0.06,WeatherDisplay:10.37,2013-09-22 16:15:00,
2013-09-22 10:20:00,50.0,48.9,29.56,WSW,251,0.0,0.0,96,0.01,CLR,SKC,0.06,WeatherDisplay:10.37,2013-09-22 16:20:00,
2013-09-22 10:26:00,50.3,49.2,29.56,WSW,251,0.0,0.0,96,0.01,CLR,SKC,0.06,WeatherDisplay:10.37,2013-09-22 16:26:00,
2013-09-22 10:31:00,50.5,49.4,29.56,WSW,251,0.0,0.0,96,0.00,CLR,SKC,0.06,WeatherDisplay:10.37,2013-09-22 16:31:00,
2013-09-22 10:36:00,50.6,49.5,29.56,WSW,251,0.0,0.0,96,0.00,CLR,SKC,0.06,WeatherDisplay:10.37,2013-09-22 16:36:00,
2013-09-22 10:41:00,50.7,49.6,29.56,WSW,251,0.0,0.0,96,0.00,CLR,SKC,0.06,WeatherDisplay:10.37,2013-09-22 16:41:00,
2013-09-22 10:45:00,51.0,49.9,29.56,WSW,251,0.0,0.0,96,0.00,CLR,SKC,0.06,WeatherDisplay:10.37,2013-09-22 16:45:00,
2013-09-22 10:50:00,51.0,49.9,29.56,WSW,251,0.0,0.0,96,0.00,CLR,SKC,0.06,WeatherDisplay:10.37,2013-09-22 16:50:00,
2013-09-22 10:55:00,51.5,50.4,29.56,WSW,251,0.0,0.0,96,0.00,CLR,SKC,0.06,WeatherDisplay:10.37,2013-09-22 16:55:00,
2013-09-22 11:00:00,51.6,50.5,29.56,WSW,251,0.0,0.1,96,0.00,CLR,SKC,0.06,WeatherDisplay:10.37,2013-09-22 17:00:00,
2013-09-22 11:05:00,51.7,50.3,29.56,WSW,251,0.0,0.0,95,0.00,CLR,SKC,0.06,WeatherDisplay:10.37,2013-09-22 17:05:00,
2013-09-22 11:11:00,52.0,50.6,29.56,WSW,251,0.0,0.0,95,0.00,CLR,SKC,0.06,WeatherDisplay:10.37,2013-09-22 17:11:00,
2013-09-22 11:16:00,52.2,50.5,29.56,WSW,251,0.0,0.0,94,0.00,CLR,SKC,0.06,WeatherDisplay:10.37,2013-09-22 17:16:00,
2013-09-22 11:21:00,52.4,50.7,29.56,WSW,251,0.0,0.0,94,0.00,CLR,SKC,0.06,WeatherDisplay:10.37,2013-09-22 17:21:00,
2013-09-22 11:26:00,52.6,50.9,29.56,SW,217,1.1,1.1,94,0.00,CLR,SKC,0.06,WeatherDisplay:10.37,2013-09-22 17:26:00,
2013-09-22 11:31:00,52.7,50.7,29.56,SW,217,0.0,0.0,93,0.00,CLR,SKC,0.06,WeatherDisplay:10.37,2013-09-22 17:31:00,
2013-09-22 11:36:00,53.0,51.0,29.56,SSW,194,1.1,1.1,93,0.00,CLR,SKC,0.06,WeatherDisplay:10.37,2013-09-22 17:36:00,
2013-09-22 11:41:00,53.2,50.6,29.56,SSW,195,1.1,1.1,91,0.00,CLR,SKC,0.06,WeatherDisplay:10.37,2013-09-22 17:41:00,
2013-09-22 11:46:00,53.2,50.0,29.56,SW,224,0.0,0.0,89,0.00,CLR,SKC,0.06,WeatherDisplay:10.37,2013-09-22 17:46:00,
2013-09-22 11:51:00,53.5,49.4,29.56,South,169,1.1,1.1,86,0.00,CLR,SKC,0.06,WeatherDisplay:10.37,2013-09-22 17:51:00,
2013-09-22 11:57:00,53.8,49.7,29.55,South,169,0.0,0.2,86,0.00,CLR,SKC,0.06,WeatherDisplay:10.37,2013-09-22 17:57:00,
2013-09-22 12:02:00,53.9,49.2,29.56,South,169,0.0,0.0,84,0.00,CLR,SKC,0.06,WeatherDisplay:10.37,2013-09-22 18:02:00,
2013-09-22 12:07:00,54.2,49.5,29.55,SW,225,1.1,1.1,84,0.00,CLR,SKC,0.06,WeatherDisplay:10.37,2013-09-22 18:07:00,
2013-09-22 12:12:00,54.4,49.0,29.55,SW,229,2.3,2.3,82,0.00,CLR,SKC,0.06,WeatherDisplay:10.37,2013-09-22 18:12:00,
2013-09-22 12:17:00,54.6,49.5,29.55,SSW,209,2.3,2.3,83,0.00,CLR,SKC,0.06,WeatherDisplay:10.37,2013-09-22 18:17:00,
2013-09-22 12:22:00,54.8,50.4,29.55,WSW,252,0.0,0.0,85,0.00,CLR,SKC,0.06,WeatherDisplay:10.37,2013-09-22 18:22:00,
2013-09-22 12:27:00,54.9,49.5,29.55,WSW,252,0.0,0.0,82,0.00,CLR,SKC,0.06,WeatherDisplay:10.37,2013-09-22 18:27:00,
2013-09-22 12:33:00,55.0,49.3,29.55,WSW,252,0.0,0.0,81,0.00,RA,SKC,0.06,WeatherDisplay:10.37,2013-09-22 18:33:00,
2013-09-22 12:38:00,55.1,48.7,29.55,WSW,245,1.0,3.0,79,0.00,RA,SKC,0.06,WeatherDisplay:10.37,2013-09-22 18:38:00,
2013-09-22 12:43:00,55.2,48.8,29.55,SW,232,0.0,0.0,79,0.00,CLR,SKC,0.06,WeatherDisplay:10.37,2013-09-22 18:43:00,
2013-09-22 12:48:00,55.4,49.3,29.55,SW,232,0.0,0.0,80,0.00,CLR,SKC,0.06,WeatherDisplay:10.37,2013-09-22 18:48:00,
2013-09-22 12:53:00,55.4,48.7,29.55,South,182,2.3,0.0,78,0.00,CLR,SKC,0.06,WeatherDisplay:10.37,2013-09-22 18:53:00,
2013-09-22 12:58:00,55.5,48.4,29.55,South,182,0.0,0.0,77,0.00,CLR,SKC,0.06,WeatherDisplay:10.37,2013-09-22 18:58:00,
2013-09-22 13:03:00,55.7,48.9,29.55,SW,219,1.0,0.0,78,0.00,CLR,SKC,0.06,WeatherDisplay:10.37,2013-09-22 19:03:00,
2013-09-22 13:08:00,55.9,48.8,29.55,SW,224,1.1,1.1,77,0.00,CLR,SKC,0.06,WeatherDisplay:10.37,2013-09-22 19:08:00,
2013-09-22 13:13:00,56.2,49.4,29.54,SW,224,1.1,1.1,78,0.00,CLR,SKC,0.06,WeatherDisplay:10.37,2013-09-22 19:13:00,
2013-09-22 13:18:00,56.4,48.9,29.54,SW,224,0.0,0.0,76,0.00,CLR,SKC,0.06,WeatherDisplay:10.37,2013-09-22 19:18:00,
2013-09-22 13:23:00,56.8,48.6,29.54,SSW,196,1.1,1.1,74,0.00,CLR,SKC,0.06,WeatherDisplay:10.37,2013-09-22 19:23:00,
2013-09-22 13:28:00,57.4,48.4,29.54,SW,222,4.6,4.6,72,0.00,CLR,SKC,0.06,WeatherDisplay:10.37,2013-09-22 19:28:00,
2013-09-22 13:33:00,58.0,49.4,29.54,SSE,161,2.3,2.3,73,0.00,CLR,SKC,0.06,WeatherDisplay:10.37,2013-09-22 19:33:00,
2013-09-22 13:38:00,58.4,49.8,29.54,SW,219,1.1,1.1,73,0.00,CLR,SKC,0.06,WeatherDisplay:10.37,2013-09-22 19:38:00,
2013-09-22 13:43:00,58.5,49.5,29.54,South,186,1.1,1.1,72,0.00,CLR,SKC,0.06,WeatherDisplay:10.37,2013-09-22 19:43:00,
2013-09-22 13:49:00,58.1,48.0,29.53,WNW,291,2.3,2.3,69,0.00,CLR,SKC,0.06,WeatherDisplay:10.37,2013-09-22 19:49:00,
2013-09-22 13:54:00,58.1,49.1,29.53,SW,224,3.5,3.5,72,0.00,CLR,SKC,0.06,WeatherDisplay:10.37,2013-09-22 19:54:00,
2013-09-22 14:00:00,58.2,49.6,29.53,SW,220,1.1,1.1,73,0.00,CLR,SKC,0.06,WeatherDisplay:10.37,2013-09-22 20:00:00,
2013-09-22 14:05:00,58.4,47.9,29.53,South,171,2.3,2.3,68,0.00,CLR,SKC,0.06,WeatherDisplay:10.37,2013-09-22 20:05:00,
2013-09-22 14:10:00,58.4,48.3,29.53,West,273,0.0,0.0,69,0.00,CLR,SKC,0.06,WeatherDisplay:10.37,2013-09-22 20:10:00,
2013-09-22 14:15:00,58.4,49.4,29.53,SSW,192,0.0,0.0,72,0.00,CLR,SKC,0.06,WeatherDisplay:10.37,2013-09-22 20:15:00,
2013-09-22 14:20:00,58.2,48.1,29.53,SW,225,4.6,4.6,69,0.00,CLR,SKC,0.06,WeatherDisplay:10.37,2013-09-22 20:20:00,
2013-09-22 14:25:00,57.6,45.5,29.53,SSW,202,4.6,4.6,64,0.00,CLR,SKC,0.06,WeatherDisplay:10.37,2013-09-22 20:25:00,
2013-09-22 14:31:00,56.8,44.7,29.53,SW,234,5.8,5.8,64,0.00,CLR,SKC,0.06,WeatherDisplay:10.37,2013-09-22 20:31:00,
2013-09-22 14:36:00,55.8,45.8,29.53,SW,219,5.8,5.8,69,0.00,CLR,SKC,0.06,WeatherDisplay:10.37,2013-09-22 20:36:00,
2013-09-22 14:41:00,54.9,46.0,29.53,SW,224,6.9,6.9,72,0.00,CLR,SKC,0.06,WeatherDisplay:10.37,2013-09-22 20:41:00,
2013-09-22 14:46:00,54.0,47.0,29.53,SSW,198,3.5,3.5,77,0.01,RA,SKC,0.07,WeatherDisplay:10.37,2013-09-22 20:46:00,
2013-09-22 14:51:00,53.2,46.9,29.53,SW,229,3.5,3.5,79,0.01,RA,SKC,0.07,WeatherDisplay:10.37,2013-09-22 20:51:00,
2013-09-22 14:56:00,52.9,45.5,29.53,SW,215,3.5,3.5,76,0.01,CLR,SKC,0.07,WeatherDisplay:10.37,2013-09-22 20:56:00,
2013-09-22 15:01:00,53.3,45.2,29.53,South,178,6.0,6.0,74,0.01,CLR,SKC,0.07,WeatherDisplay:10.37,2013-09-22 21:01:00,
2013-09-22 15:06:00,53.9,45.8,29.53,WSW,244,3.5,3.5,74,0.01,CLR,SKC,0.07,WeatherDisplay:10.37,2013-09-22 21:06:00,
2013-09-22 15:11:00,54.3,44.7,29.53,WNW,302,3.5,3.5,70,0.01,CLR,SKC,0.07,WeatherDisplay:10.37,2013-09-22 21:11:00,
2013-09-22 15:16:00,54.8,45.9,29.53,WNW,283,3.5,3.5,72,0.01,CLR,SKC,0.07,WeatherDisplay:10.37,2013-09-22 21:16:00,
2013-09-22 15:21:00,55.1,45.5,29.53,WSW,246,2.3,2.3,70,0.01,CLR,SKC,0.07,WeatherDisplay:10.37,2013-09-22 21:21:00,
2013-09-22 15:26:00,55.2,45.6,29.52,SW,227,4.6,4.6,70,0.01,CLR,SKC,0.07,WeatherDisplay:10.37,2013-09-22 21:26:00,
2013-09-22 15:31:00,55.5,45.1,29.52,SSW,203,4.6,4.6,68,0.01,CLR,SKC,0.07,WeatherDisplay:10.37,2013-09-22 21:31:00,
2013-09-22 15:36:00,55.9,45.5,29.52,WNW,287,3.5,3.5,68,0.01,CLR,SKC,0.07,WeatherDisplay:10.37,2013-09-22 21:36:00,
2013-09-22 15:42:00,56.4,45.2,29.52,WSW,250,2.3,2.3,66,0.01,CLR,SKC,0.07,WeatherDisplay:10.37,2013-09-22 21:42:00,
2013-09-22 15:48:00,56.4,45.2,29.52,SW,226,4.6,4.6,66,0.00,CLR,SKC,0.07,WeatherDisplay:10.37,2013-09-22 21:48:00,
2013-09-22 15:53:00,56.3,45.1,29.52,SW,227,2.3,2.3,66,0.00,CLR,SKC,0.07,WeatherDisplay:10.37,2013-09-22 21:53:00,
2013-09-22 15:58:00,56.5,45.3,29.52,South,188,3.5,3.5,66,0.00,CLR,SKC,0.07,WeatherDisplay:10.37,2013-09-22 21:58:00,
2013-09-22 16:03:00,56.6,45.0,29.52,SSW,209,5.8,5.8,65,0.00,CLR,SKC,0.07,WeatherDisplay:10.37,2013-09-22 22:03:00,
2013-09-22 16:08:00,56.8,44.7,29.52,SW,227,4.6,4.6,64,0.00,CLR,SKC,0.07,WeatherDisplay:10.37,2013-09-22 22:08:00,
2013-09-22 16:13:00,57.2,45.9,29.52,SSW,212,4.6,4.6,66,0.00,CLR,SKC,0.07,WeatherDisplay:10.37,2013-09-22 22:13:00,
2013-09-22 16:18:00,56.9,45.3,29.52,SW,231,4.6,4.6,65,0.00,CLR,SKC,0.07,WeatherDisplay:10.37,2013-09-22 22:18:00,
2013-09-22 16:23:00,56.6,44.6,29.52,SW,234,4.6,4.6,64,0.00,CLR,SKC,0.07,WeatherDisplay:10.37,2013-09-22 22:23:00,
2013-09-22 16:28:00,56.1,44.5,29.52,SW,222,8.1,8.1,65,0.00,CLR,SKC,0.07,WeatherDisplay:10.37,2013-09-22 22:28:00,
2013-09-22 16:33:00,55.6,45.2,29.52,SW,217,9.2,9.2,68,0.00,CLR,SKC,0.07,WeatherDisplay:10.37,2013-09-22 22:33:00,
2013-09-22 16:38:00,55.0,45.7,29.53,SW,232,6.0,12.0,71,0.00,RA,SKC,0.07,WeatherDisplay:10.37,2013-09-22 22:38:00,
2013-09-22 16:44:00,54.2,45.7,29.53,WSW,244,5.8,5.8,73,0.00,CLR,SKC,0.07,WeatherDisplay:10.37,2013-09-22 22:44:00,
2013-09-22 16:49:00,53.9,45.8,29.53,SSW,211,9.2,9.2,74,0.00,CLR,SKC,0.07,WeatherDisplay:10.37,2013-09-22 22:49:00,
2013-09-22 16:54:00,53.8,45.7,29.54,SW,230,5.8,5.8,74,0.00,CLR,SKC,0.07,WeatherDisplay:10.37,2013-09-22 22:54:00,
2013-09-22 16:59:00,54.0,44.4,29.54,SW,223,4.6,4.6,70,0.00,CLR,SKC,0.07,WeatherDisplay:10.37,2013-09-22 22:59:00,
2013-09-22 17:04:00,54.2,44.6,29.55,SW,221,4.6,4.6,70,0.00,CLR,SKC,0.07,WeatherDisplay:10.37,2013-09-22 23:04:00,
2013-09-22 17:09:00,54.2,44.6,29.55,SSW,192,4.6,4.6,70,0.00,CLR,SKC,0.07,WeatherDisplay:10.37,2013-09-22 23:09:00,
2013-09-22 17:14:00,54.2,44.2,29.55,SW,217,3.5,3.5,69,0.00,CLR,SKC,0.07,WeatherDisplay:10.37,2013-09-22 23:14:00,
2013-09-22 17:19:00,54.2,44.6,29.55,SW,232,3.5,3.5,70,0.00,CLR,SKC,0.07,WeatherDisplay:10.37,2013-09-22 23:19:00,
2013-09-22 17:24:00,54.2,44.6,29.55,WSW,242,3.5,3.5,70,0.00,CLR,SKC,0.07,WeatherDisplay:10.37,2013-09-22 23:24:00,
2013-09-22 17:29:00,54.1,44.2,29.55,SSW,207,10.4,10.4,69,0.00,CLR,SKC,0.07,WeatherDisplay:10.37,2013-09-22 23:29:00,
2013-09-22 17:34:00,54.4,44.1,29.55,SW,225,11.5,11.5,68,0.00,CLR,SKC,0.07,WeatherDisplay:10.37,2013-09-22 23:34:00,
2013-09-22 17:39:00,54.5,43.4,29.55,WSW,252,9.2,9.2,66,0.00,CLR,SKC,0.07,WeatherDisplay:10.37,2013-09-22 23:39:00,
2013-09-22 17:44:00,55.0,43.0,29.55,SW,226,6.9,6.9,64,0.00,CLR,SKC,0.07,WeatherDisplay:10.37,2013-09-22 23:44:00,
2013-09-22 17:49:00,55.0,43.4,29.56,SW,220,5.8,5.8,65,0.00,CLR,SKC,0.07,WeatherDisplay:10.37,2013-09-22 23:49:00,
2013-09-22 17:54:00,55.0,43.0,29.56,SW,236,2.3,2.3,64,0.00,CLR,SKC,0.07,WeatherDisplay:10.37,2013-09-22 23:54:00,
2013-09-22 17:59:00,55.1,43.1,29.57,NE,56,1.1,1.1,64,0.00,CLR,SKC,0.07,WeatherDisplay:10.37,2013-09-22 23:59:00,
2013-09-22 18:05:00,55.2,43.6,29.57,WNW,283,1.1,1.1,65,0.00,CLR,SKC,0.07,WeatherDisplay:10.37,2013-09-23 00:05:00,
2013-09-22 18:10:00,55.3,44.9,29.57,WNW,283,0.0,0.0,68,0.00,CLR,SKC,0.07,WeatherDisplay:10.37,2013-09-23 00:10:00,
2013-09-22 18:15:00,55.3,46.1,29.57,NW,313,0.0,0.0,71,0.00,CLR,SKC,0.07,WeatherDisplay:10.37,2013-09-23 00:15:00,
2013-09-22 18:20:00,55.1,47.0,29.58,NW,313,1.1,1.1,74,0.00,CLR,SKC,0.07,WeatherDisplay:10.37,2013-09-23 00:20:00,
2013-09-22 18:25:00,54.9,47.1,29.58,NW,313,0.0,0.0,75,0.00,CLR,SKC,0.07,WeatherDisplay:10.37,2013-09-23 00:25:00,
2013-09-22 18:31:00,54.6,46.5,29.58,NNW,334,2.3,2.3,74,0.00,CLR,SKC,0.07,WeatherDisplay:10.37,2013-09-23 00:31:00,
2013-09-22 18:36:00,54.5,46.7,29.58,NNW,334,0.0,0.0,75,0.00,CLR,SKC,0.07,WeatherDisplay:10.37,2013-09-23 00:36:00,
2013-09-22 18:41:00,54.3,46.5,29.58,NNW,342,1.1,1.1,75,0.00,CLR,SKC,0.07,WeatherDisplay:10.37,2013-09-23 00:41:00,
2013-09-22 18:46:00,54.1,46.3,29.58,NNW,342,0.0,0.0,75,0.00,CLR,SKC,0.07,WeatherDisplay:10.37,2013-09-23 00:46:00,
2013-09-22 18:51:00,54.1,46.3,29.58,NNW,342,0.0,0.0,75,0.00,CLR,SKC,0.07,WeatherDisplay:10.37,2013-09-23 00:51:00,
2013-09-22 18:56:00,54.0,46.3,29.59,NNW,342,0.0,0.0,75,0.00,CLR,SKC,0.07,WeatherDisplay:10.37,2013-09-23 00:56:00,
2013-09-22 19:02:00,53.9,46.5,29.59,NNW,342,0.0,0.0,76,0.00,CLR,SKC,0.07,WeatherDisplay:10.37,2013-09-23 01:02:00,
2013-09-22 19:07:00,53.8,46.8,29.59,NNW,342,1.1,1.1,77,0.00,CLR,SKC,0.07,WeatherDisplay:10.37,2013-09-23 01:07:00,
2013-09-22 19:13:00,53.6,46.2,29.59,NNW,342,0.0,0.0,76,0.00,CLR,SKC,0.07,WeatherDisplay:10.37,2013-09-23 01:13:00,
2013-09-22 19:18:00,53.6,47.6,29.60,NNW,342,0.0,0.0,80,0.00,CLR,SKC,0.07,WeatherDisplay:10.37,2013-09-23 01:18:00,
2013-09-22 19:23:00,53.4,47.7,29.60,NNW,342,0.0,0.0,81,0.00,CLR,SKC,0.07,WeatherDisplay:10.37,2013-09-23 01:23:00,
2013-09-22 19:29:00,52.9,47.2,29.60,NNW,342,0.0,0.0,81,0.00,CLR,SKC,0.07,WeatherDisplay:10.37,2013-09-23 01:29:00,
2013-09-22 19:34:00,52.7,47.4,29.60,NNW,342,0.0,0.0,82,0.00,CLR,SKC,0.07,WeatherDisplay:10.37,2013-09-23 01:34:00,
2013-09-22 19:39:00,52.4,46.4,29.60,NNW,342,0.0,0.0,80,0.00,RA,SKC,0.07,WeatherDisplay:10.37,2013-09-23 01:39:00,
2013-09-22 19:45:00,52.3,47.6,29.60,NNW,342,0.0,0.0,84,0.00,CLR,SKC,0.07,WeatherDisplay:10.37,2013-09-23 01:45:00,
2013-09-22 19:50:00,51.8,47.4,29.60,NNW,342,0.0,0.0,85,0.00,CLR,SKC,0.07,WeatherDisplay:10.37,2013-09-23 01:50:00,
2013-09-22 19:55:00,51.4,47.4,29.60,NNW,342,0.0,0.0,86,0.00,CLR,SKC,0.07,WeatherDisplay:10.37,2013-09-23 01:55:00,
2013-09-22 20:01:00,51.0,47.3,29.61,NNW,342,0.0,0.1,87,0.00,CLR,SKC,0.07,WeatherDisplay:10.37,2013-09-23 02:01:00,
2013-09-22 20:05:00,50.7,47.3,29.61,NNW,342,0.0,0.0,88,0.00,CLR,SKC,0.07,WeatherDisplay:10.37,2013-09-23 02:05:00,
2013-09-22 20:10:00,50.5,47.4,29.61,NNW,342,0.0,0.0,89,0.00,CLR,SKC,0.07,WeatherDisplay:10.37,2013-09-23 02:10:00,
2013-09-22 20:15:00,50.3,47.2,29.61,NNW,342,0.0,0.0,89,0.00,CLR,SKC,0.07,WeatherDisplay:10.37,2013-09-23 02:15:00,
2013-09-22 20:20:00,50.3,47.2,29.61,NNW,342,0.0,0.0,89,0.00,CLR,SKC,0.07,WeatherDisplay:10.37,2013-09-23 02:20:00,
2013-09-22 20:25:00,50.2,47.1,29.61,NNW,342,0.0,0.0,89,0.00,CLR,SKC,0.07,WeatherDisplay:10.37,2013-09-23 02:25:00,
2013-09-22 20:30:00,50.1,47.0,29.61,NNW,342,0.0,0.0,89,0.00,CLR,SKC,0.07,WeatherDisplay:10.37,2013-09-23 02:30:00,
2013-09-22 20:35:00,50.1,47.3,29.61,NNW,342,0.0,0.0,90,0.00,CLR,SKC,0.07,WeatherDisplay:10.37,2013-09-23 02:35:00,
2013-09-22 20:40:00,50.1,47.3,29.61,NNW,342,0.0,0.0,90,0.00,CLR,SKC,0.07,WeatherDisplay:10.37,2013-09-23 02:40:00,
2013-09-22 20:45:00,49.9,46.8,29.61,NNW,342,0.0,0.0,89,0.00,CLR,SKC,0.07,WeatherDisplay:10.37,2013-09-23 02:45:00,
2013-09-22 20:51:00,49.8,46.7,29.61,NNW,342,0.0,0.0,89,0.00,CLR,SKC,0.07,WeatherDisplay:10.37,2013-09-23 02:51:00,
2013-09-22 20:56:00,49.9,47.1,29.61,NNW,342,0.0,0.0,90,0.00,CLR,SKC,0.07,WeatherDisplay:10.37,2013-09-23 02:56:00,
2013-09-22 21:01:00,49.8,47.0,29.61,NNW,342,0.0,0.0,90,0.00,CLR,SKC,0.07,WeatherDisplay:10.37,2013-09-23 03:01:00,
2013-09-22 21:06:00,49.7,46.9,29.62,NNW,342,0.0,0.0,90,0.00,CLR,SKC,0.07,WeatherDisplay:10.37,2013-09-23 03:06:00,
2013-09-22 21:11:00,49.7,46.9,29.62,NNW,342,0.0,0.0,90,0.00,CLR,SKC,0.07,WeatherDisplay:10.37,2013-09-23 03:11:00,
2013-09-22 21:16:00,49.5,46.7,29.62,North,350,0.0,0.0,90,0.00,CLR,SKC,0.07,WeatherDisplay:10.37,2013-09-23 03:16:00,
2013-09-22 21:21:00,49.6,47.1,29.62,North,349,0.0,0.0,91,0.00,CLR,SKC,0.07,WeatherDisplay:10.37,2013-09-23 03:21:00,
2013-09-22 21:26:00,49.5,47.0,29.62,North,349,0.0,0.0,91,0.00,CLR,SKC,0.07,WeatherDisplay:10.37,2013-09-23 03:26:00,
2013-09-22 21:31:00,49.5,47.0,29.62,North,350,0.0,0.0,91,0.00,CLR,SKC,0.07,WeatherDisplay:10.37,2013-09-23 03:31:00,
2013-09-22 21:36:00,49.5,47.0,29.62,North,350,0.0,0.0,91,0.00,CLR,SKC,0.07,WeatherDisplay:10.37,2013-09-23 03:36:00,
2013-09-22 21:41:00,49.6,47.1,29.62,North,349,0.0,0.0,91,0.00,CLR,SKC,0.07,WeatherDisplay:10.37,2013-09-23 03:41:00,
2013-09-22 21:47:00,49.4,46.9,29.62,North,349,0.0,0.0,91,0.00,CLR,SKC,0.07,WeatherDisplay:10.37,2013-09-23 03:47:00,
2013-09-22 21:52:00,49.4,46.9,29.62,North,350,0.0,0.0,91,0.00,CLR,SKC,0.07,WeatherDisplay:10.37,2013-09-23 03:52:00,
2013-09-22 21:57:00,49.3,46.8,29.62,North,349,0.0,0.0,91,0.00,CLR,SKC,0.07,WeatherDisplay:10.37,2013-09-23 03:57:00,
2013-09-22 22:01:00,49.2,46.7,29.62,North,349,0.0,0.0,91,0.00,CLR,SKC,0.07,WeatherDisplay:10.37,2013-09-23 04:01:00,
2013-09-22 22:02:00,49.2,46.7,29.62,North,350,0.0,0.0,91,0.00,CLR,SKC,0.07,WeatherDisplay:10.37,2013-09-23 04:02:00,
2013-09-22 22:03:00,49.2,46.7,29.61,North,350,0.0,0.0,91,0.00,CLR,SKC,0.07,WeatherDisplay:10.37,2013-09-23 04:03:00,
2013-09-22 22:08:00,49.2,46.7,29.61,North,350,0.0,0.0,91,0.00,CLR,SKC,0.07,WeatherDisplay:10.37,2013-09-23 04:08:00,
2013-09-22 22:12:00,49.2,46.7,29.61,North,350,0.0,0.0,91,0.00,CLR,SKC,0.07,WeatherDisplay:10.37,2013-09-23 04:12:00,
2013-09-22 22:13:00,49.2,46.7,29.61,North,350,0.0,0.0,91,0.00,CLR,SKC,0.07,WeatherDisplay:10.37,2013-09-23 04:13:00,
2013-09-22 22:18:00,49.2,46.7,29.62,North,350,0.0,0.0,91,0.00,CLR,SKC,0.07,WeatherDisplay:10.37,2013-09-23 04:18:00,
2013-09-22 22:23:00,49.1,46.6,29.61,North,349,0.0,0.0,91,0.00,CLR,SKC,0.07,WeatherDisplay:10.37,2013-09-23 04:23:00,
2013-09-22 22:28:00,49.0,46.2,29.61,North,350,0.0,0.0,90,0.00,CLR,SKC,0.07,WeatherDisplay:10.37,2013-09-23 04:28:00,
2013-09-22 22:33:00,49.0,46.5,29.62,North,350,0.0,0.0,91,0.00,CLR,SKC,0.07,WeatherDisplay:10.37,2013-09-23 04:33:00,
2013-09-22 22:38:00,48.8,46.0,29.62,North,349,0.0,0.0,90,0.00,CLR,SKC,0.07,WeatherDisplay:10.37,2013-09-23 04:38:00,
2013-09-22 22:43:00,48.7,45.9,29.62,North,349,0.0,0.0,90,0.00,RA,SKC,0.07,WeatherDisplay:10.37,2013-09-23 04:43:00,
2013-09-22 22:48:00,48.5,45.7,29.62,North,349,0.0,0.0,90,0.00,RA,SKC,0.07,WeatherDisplay:10.37,2013-09-23 04:48:00,
2013-09-22 22:54:00,48.3,45.8,29.62,North,349,0.0,0.0,91,0.00,CLR,SKC,0.07,WeatherDisplay:10.37,2013-09-23 04:54:00,
2013-09-22 22:59:00,48.1,45.6,29.62,North,349,0.0,0.0,91,0.00,CLR,SKC,0.07,WeatherDisplay:10.37,2013-09-23 04:59:00,
2013-09-22 23:04:00,47.9,45.4,29.61,North,349,0.0,0.0,91,0.00,CLR,SKC,0.07,WeatherDisplay:10.37,2013-09-23 05:04:00,
2013-09-22 23:09:00,47.8,45.3,29.62,North,349,0.0,0.0,91,0.00,CLR,SKC,0.07,WeatherDisplay:10.37,2013-09-23 05:09:00,
2013-09-22 23:14:00,47.8,45.3,29.62,North,349,0.0,0.0,91,0.00,CLR,SKC,0.07,WeatherDisplay:10.37,2013-09-23 05:14:00,
2013-09-22 23:19:00,47.7,45.5,29.62,North,349,0.0,0.0,92,0.00,CLR,SKC,0.07,WeatherDisplay:10.37,2013-09-23 05:19:00,
2013-09-22 23:24:00,47.7,45.5,29.62,North,349,0.0,0.0,92,0.00,CLR,SKC,0.07,WeatherDisplay:10.37,2013-09-23 05:24:00,
2013-09-22 23:29:00,47.7,45.5,29.61,North,349,0.0,0.0,92,0.00,CLR,SKC,0.07,WeatherDisplay:10.37,2013-09-23 05:29:00,
2013-09-22 23:34:00,47.7,45.5,29.61,North,349,0.0,0.0,92,0.00,CLR,SKC,0.07,WeatherDisplay:10.37,2013-09-23 05:34:00,
2013-09-22 23:39:00,47.7,45.5,29.61,North,349,0.0,0.0,92,0.00,CLR,SKC,0.07,WeatherDisplay:10.37,2013-09-23 05:39:00,
2013-09-22 23:44:00,47.8,45.6,29.61,North,349,0.0,0.0,92,0.00,CLR,SKC,0.07,WeatherDisplay:10.37,2013-09-23 05:44:00,
2013-09-22 23:49:00,48.0,45.5,29.61,WNW,292,0.0,0.0,91,0.00,CLR,SKC,0.07,WeatherDisplay:10.37,2013-09-23 05:49:00,
2013-09-22 23:54:00,48.1,45.3,29.61,WNW,292,0.0,0.0,90,0.00,CLR,SKC,0.07,WeatherDisplay:10.37,2013-09-23 05:54:00,